sat.trackr.live / text

‹ back to catalog

COSMOS 2522 (752)

NORAD 42939 · 2017-055A

PAYLOAD ACTIVE UNKNOWN

§ Identity

Operator
Country
CIS
Launch date
2017-09-22
Launch site
PLMSC
Launch vehicle
Mass (kg)
RCS (m²)

Purposes: nav

External: N2YO · Heavens-Above · Gunter

§ Orbital elements

Epoch: 2026-05-25T03:06:11.131200Z

Period
675.73 min
Inclination
64.0769°
Eccentricity
0.0010318
Mean motion
2.13101820 rev/d
Perigee alt
19,103.6 km
Apogee alt
19,156.2 km
Semi-major
25,508.0 km
B*
0.0000e+0
RAAN
192.6693°
Arg perigee
239.1545°
Mean anomaly
120.8151°
Rev number
6,748

§ Raw data

COSMOS 2522 (752)1 42939U 17055A   26145.12929550  .00000048  00000+0  00000+0 0  99962 42939  64.0769 192.6693 0010318 239.1545 120.8151  2.13101820 67480

JSON: /api/v1/satellites/42939 · /tle

For live sub-satellite position, see the globe view (requires WebGL).

§ Visibility from observer

Set your observer location to see the next 7 days of passes ≥ 10°. The values pass through the URL so the page stays shareable.

No JS? Fill the form by hand. The geolocation button needs JavaScript.